TimeEDT,TemperatureF,Dew PointF,Humidity,Sea Level PressureIn,VisibilityMPH,Wind Direction,Wind SpeedMPH,Gust SpeedMPH,PrecipitationIn,Events,Conditions,WindDirDegrees,DateUTC
12:52 AM,37.9,26.1,62,30.31,10.0,NNE,5.8,-,N/A,,Clear,30,2013-03-29 04:52:00
1:52 AM,37.9,24.1,57,30.31,10.0,NNE,3.5,-,N/A,,Clear,20,2013-03-29 05:52:00
2:52 AM,33.1,25.0,72,30.31,10.0,Calm,Calm,-,N/A,,Clear,0,2013-03-29 06:52:00
3:52 AM,30.0,25.0,82,30.31,10.0,Calm,Calm,-,N/A,,Clear,0,2013-03-29 07:52:00
4:52 AM,28.0,26.1,92,30.31,10.0,Calm,Calm,-,N/A,,Clear,0,2013-03-29 08:52:00
5:52 AM,28.0,25.0,88,30.32,10.0,Calm,Calm,-,N/A,,Clear,0,2013-03-29 09:52:00
6:52 AM,28.9,24.1,82,30.33,10.0,Calm,Calm,-,N/A,,Clear,0,2013-03-29 10:52:00
7:52 AM,28.9,26.1,89,30.35,10.0,Calm,Calm,-,N/A,,Clear,0,2013-03-29 11:52:00
8:52 AM,39.0,30.0,70,30.36,10.0,Calm,Calm,-,N/A,,Clear,0,2013-03-29 12:52:00
9:52 AM,48.0,25.0,41,30.35,10.0,Calm,Calm,-,N/A,,Clear,0,2013-03-29 13:52:00
10:52 AM,54.0,25.0,33,30.35,10.0,Variable,3.5,-,N/A,,Clear,0,2013-03-29 14:52:00
11:52 AM,55.9,21.9,27,30.33,10.0,North,5.8,-,N/A,,Clear,10,2013-03-29 15:52:00
12:52 PM,59.0,23.0,25,30.30,10.0,Variable,5.8,-,N/A,,Clear,0,2013-03-29 16:52:00
1:52 PM,60.1,21.9,23,30.28,10.0,NNW,6.9,19.6,N/A,,Clear,330,2013-03-29 17:52:00
2:52 PM,62.1,21.9,21,30.25,10.0,West,15.0,21.9,N/A,,Clear,280,2013-03-29 18:52:00
3:52 PM,61.0,21.0,21,30.22,10.0,NNW,4.6,16.1,N/A,,Clear,330,2013-03-29 19:52:00
4:52 PM,62.1,23.0,22,30.21,10.0,West,12.7,18.4,N/A,,Clear,280,2013-03-29 20:52:00
5:52 PM,62.1,21.9,21,30.20,10.0,WNW,10.4,-,N/A,,Clear,290,2013-03-29 21:52:00
6:52 PM,59.0,24.1,26,30.21,10.0,West,4.6,-,N/A,,Overcast,270,2013-03-29 22:52:00
7:52 PM,57.0,26.1,30,30.22,10.0,West,3.5,-,N/A,,Overcast,280,2013-03-29 23:52:00
8:52 PM,54.0,26.1,34,30.22,10.0,Calm,Calm,-,N/A,,Scattered Clouds,0,2013-03-30 00:52:00
9:52 PM,51.1,30.0,44,30.23,10.0,Calm,Calm,-,N/A,,Mostly Cloudy,0,2013-03-30 01:52:00
10:52 PM,50.0,32.0,50,30.23,10.0,Calm,Calm,-,N/A,,Mostly Cloudy,0,2013-03-30 02:52:00
11:52 PM,48.9,35.1,59,30.22,10.0,SW,4.6,-,N/A,,Overcast,230,2013-03-30 03:52:00